Location: *
(28.2408°N, 53.4600°E)
Time: 08:03:33
(UTC+00:00)

Cosmos 2251 Rocket - Pass Details

Date: 22 September 2019
Orbit: 764 x 792 km, 74.0° (Epoch: 20 October)

Event Time Altitude Azimuth Distance (km) Brightness Sun altitude
Rises 15:11:50 0° 338° (NNW) 3,291 7.2 -11.5°
Reaches altitude 10° 15:14:16 10° 335° (NNW) 2,358 6.5 -12.0°
Maximum altitude 15:19:31 56° 258° (WSW) 930 4.3 -13.2°
Drops below altitude 10° 15:24:42 10° 180° (S) 2,335 5.9 -14.3°
Sets 15:27:07 0° 176° (S) 3,256 6.6 -14.8°
